[[{"header":{"parameterUnit":"m.s-1","parameterCategory":1,"la1":30.2991,"la2":30.254,"lo1":-89.0895,"lo2":-89.0444,"dy":0.0017,"dx":0.0017,"nx":28,"ny":28,"refTime":"2024-03-17T03:00:00:Z","depth":0,"parameterNumber":2,"parameterNumberName":"U-component_of_WINDS"},"data":[0,0,0,0,0,0,0,0,0,0,0,0,0,0,0,0,0,0,0,0,0,0,0,0,0,0,0,0,0,0,0,0,0,0,0,0,0,0,0,0,0,0,0,0,0,0,0,0,0,0,0,0,0,0,0,0,0,0,0.4238,0.4239,0,0.4308,0.4308,0.4309,0.4331,0.4331,0.4331,0.433,0.4402,0.4404,0.4406,0,0,0,0,0,0,0,0,0,0,0,0,0,0.4124,0.4126,0.4238,0.4239,0.424,0.4307,0.4308,0.4309,0.4331,0.4331,0.4331,0.433,0.4401,0.4404,0.4406,0,0,0,0,0,0,0,0,0,0,0,0,0,0.4182,0.4127,0.4238,0.4259,0.4262,0.4307,0.4308,0.431,0.4331,0.4331,0.433,0.433,0.44,0.4403,0.4407,0.4436,0,0,0.4417,0.4418,0,0,0,0,0,0,0,0,0.4178,0.4186,0.4255,0.4258,0.4261,0.431,0.4294,0.4352,0.4332,0.4305,0.433,0.433,0.4372,0.4377,0.4391,0.444,0.4443,0.4417,0.4419,0.442,0.4421,0,0,0,0,0,0,0,0.4174,0.4183,0.4266,0.4256,0.426,0.4265,0.4272,0.4305,0.434,0.4307,0.4309,0.4317,0.4373,0.4388,0.4393,0.4444,0.4417,0.442,0.4422,0.4423,0.452,0.452,0,0,0,0,0,0,0.4167,0.418,0.4264,0.4268,0.4218,0.4267,0.4276,0.4295,0.434,0.4346,0.4317,0.4318,0.4383,0.4389,0.4396,0.4433,0.442,0.4423,0.4425,0.4519,0.452,0.452,0,0,0,0,0,0,0.4164,0.4174,0.4261,0.4224,0.4236,0.427,0.4291,0.4296,0.4312,0.4347,0.4354,0.4326,0.4383,0.4391,0.4426,0.4436,0.4425,0.4428,0.4518,0.4519,0.452,0.4509,0,0,0,0,0,0,0.4161,0.4173,0.4185,0.4224,0.4237,0.429,0.4292,0.4298,0.4317,0.4318,0.4358,0.4364,0.4383,0.4421,0.4429,0.4441,0.443,0.4517,0.4519,0.452,0.4509,0.4509,0.451,0,0,0,0,0,0.4157,0.4179,0.4186,0.4196,0.4253,0.429,0.4298,0.432,0.4318,0.433,0.4353,0.4362,0.4434,0.4424,0.4434,0.4446,0.4517,0.4518,0.452,0.4508,0.4509,0.451,0,0,0,0,0,0,0.4141,0.4185,0.4192,0.4228,0.4255,0.4294,0.431,0.432,0.4348,0.4348,0.4374,0.4383,0.4416,0.4434,0.4423,0.4477,0.4476,0.4479,0.4464,0.4465,0.4466,0.4461,0.4433,0,0,0,0,0,0.4141,0.4168,0.4205,0.4233,0.4246,0.4276,0.4293,0.4307,0.4336,0.4348,0.4374,0.4401,0.443,0.4449,0.4477,0.4511,0.452,0.4524,0.4525,0.4525,0.4528,0.4547,0.455,0.4525,0.4525,0.4525,0,0,0.4143,0.417,0.4186,0.4231,0.4253,0.428,0.4285,0.4314,0.4334,0.4352,0.4387,0.4406,0.4439,0.4474,0.449,0.449,0.4537,0.4527,0.4527,0.453,0.4549,0.4551,0.4553,0.4526,0.4525,0.4525,0,0,0.4159,0.4183,0.4209,0.4231,0.4265,0.4285,0.4291,0.4328,0.4341,0.4376,0.439,0.4415,0.4464,0.4486,0.4504,0.4528,0.4538,0.4537,0.4541,0.4559,0.4561,0.4563,0.4571,0.4574,0.4539,0.4539,0.4539,0,0.4157,0.4198,0.4221,0.4248,0.4267,0.4285,0.4311,0.4332,0.4373,0.4386,0.4386,0.4447,0.447,0.451,0.4516,0.453,0.4537,0.4533,0.4559,0.4561,0.4563,0.4571,0.4574,0.4539,0.4539,0.4539,0.4539,0,0.4193,0.4222,0.4238,0.4278,0.4299,0.4326,0.4352,0.437,0.4382,0.4401,0.4436,0.4465,0.4499,0.451,0.4522,0.4551,0.455,0.4554,0.4553,0.4565,0.4573,0.4576,0.4538,0.4538,0.4539,0.4539,0,0,0.4202,0.4253,0.4259,0.4277,0.4316,0.4338,0.4365,0.4398,0.4414,0.4442,0.4465,0.4505,0.4509,0.4529,0.4544,0.456,0.4577,0.4562,0.4563,0.4564,0.461,0.4607,0.461,0.4583,0.4584,0.4584,0.4607,0,0.4224,0.4273,0.4294,0.4334,0.436,0.4376,0.44,0.4426,0.4444,0.4469,0.4489,0.4518,0.452,0.4533,0.4549,0.4571,0.4587,0.457,0.4605,0.4606,0.4596,0.4615,0.4612,0.4632,0.4611,0.4611,0.4612,0,0.4256,0.4284,0.4326,0.4361,0.4373,0.4393,0.4425,0.4449,0.4478,0.4491,0.4513,0.4527,0.4555,0.4552,0.4592,0.458,0.4595,0.4608,0.461,0.4614,0.461,0.462,0.4639,0.4642,0.4617,0.4617,0.4616,0,0.4258,0.4306,0.4337,0.4352,0.4394,0.4408,0.4426,0.4455,0.4473,0.4501,0.4513,0.4544,0.4561,0.4584,0.4606,0.4601,0.4643,0.4642,0.4654,0.4653,0.4663,0.4662,0.4685,0.4672,0.4672,0.4672,0.4672,0,0.428,0.4305,0.4339,0.4358,0.4387,0.441,0.4437,0.4456,0.4482,0.4505,0.4521,0.4542,0.457,0.4594,0.4611,0.4641,0.4649,0.4659,0.4664,0.4658,0.4657,0.4669,0.4668,0.4673,0.4673,0.4673,0.4672,0,0.4287,0.4311,0.4346,0.4382,0.4392,0.4411,0.4442,0.4461,0.448,0.4509,0.4517,0.4547,0.4577,0.46,0.4639,0.4651,0.4682,0.4687,0.4672,0.4675,0.4685,0.4684,0.4717,0.4723,0.4706,0.4706,0.4706,0,0.4299,0.4319,0.4357,0.4374,0.4392,0.4418,0.4437,0.446,0.4479,0.4514,0.4529,0.456,0.4586,0.4632,0.4657,0.4687,0.4693,0.4702,0.4697,0.4691,0.4693,0.4691,0.4693,0.4703,0.4703,0.4703,0.4703,0,0.4319,0.4329,0.4356,0.4387,0.4409,0.4434,0.4459,0.4472,0.4499,0.452,0.455,0.457,0.461,0.464,0.4672,0.4691,0.4701,0.4704,0.4709,0.4703,0.4694,0.4699,0.4674,0.4703,0.4703,0.4703,0.4703,0.4703,0.4329,0.4347,0.4377,0.4406,0.4427,0.4451,0.447,0.4491,0.4517,0.4551,0.4563,0.4594,0.4623,0.4667,0.4686,0.471,0.4711,0.4718,0.4719,0.472,0.472,0.469,0.4716,0.4716,0.4716,0.4716,0.4716,0,0.4349,0.4369,0.4395,0.443,0.4453,0.4461,0.4489,0.4508,0.4535,0.4561,0.4586,0.462,0.465,0.4677,0.4707,0.4722,0.4727,0.4729,0.4728,0.4732,0.4717,0.471,0.4724,0.4724,0.4724,0.4724,0.4724,0.4724,0.4362,0.4393,0.4407,0.4449,0.4469,0.45,0.4515,0.4536,0.4557,0.4595,0.462,0.4637,0.4663,0.4695,0.4722,0.4729,0.474,0.474,0.4749,0.4734,0.4733,0.4732,0.4726,0.4742,0.4742,0.4761,0.4762,0.4762]},{"header":{"parameterUnit":"m.s-1","parameterCategory":1,"la1":30.2991,"la2":30.254,"lo1":-89.0895,"lo2":-89.0444,"dy":0.0017,"dx":0.0017,"nx":28,"ny":28,"refTime":"2024-03-17T03:00:00:Z","depth":0,"parameterNumber":3,"parameterNumberName":"V-component_of_WINDS"},"data":[0,0,0,0,0,0,0,0,0,0,0,0,0,0,0,0,0,0,0,0,0,0,0,0,0,0,0,0,0,0,0,0,0,0,0,0,0,0,0,0,0,0,0,0,0,0,0,0,0,0,0,0,0,0,0,0,0,0,0.6915,0.6914,0,0.6879,0.6879,0.6879,0.6864,0.6864,0.6864,0.6864,0.6829,0.6828,0.6827,0,0,0,0,0,0,0,0,0,0,0,0,0,0.6971,0.697,0.6915,0.6914,0.6914,0.6879,0.6879,0.6878,0.6864,0.6864,0.6864,0.6864,0.683,0.6828,0.6827,0,0,0,0,0,0,0,0,0,0,0,0,0,0.6942,0.697,0.6915,0.6902,0.6901,0.688,0.6879,0.6878,0.6864,0.6864,0.6864,0.6864,0.683,0.6828,0.6827,0.6815,0,0,0.6822,0.6822,0,0,0,0,0,0,0,0,0.6944,0.694,0.6905,0.6903,0.6902,0.6876,0.6886,0.6857,0.6864,0.6878,0.6864,0.6864,0.6845,0.6842,0.6835,0.6814,0.6812,0.6822,0.6821,0.6821,0.682,0,0,0,0,0,0,0,0.6946,0.6942,0.6901,0.6904,0.6902,0.6899,0.6895,0.688,0.6861,0.6877,0.6876,0.6872,0.6844,0.6837,0.6834,0.6812,0.6822,0.6821,0.682,0.6819,0.678,0.678,0,0,0,0,0,0,0.695,0.6943,0.6902,0.69,0.6923,0.6898,0.6894,0.6884,0.6861,0.6858,0.6872,0.6871,0.6839,0.6836,0.6833,0.6818,0.6821,0.6819,0.6818,0.678,0.678,0.678,0,0,0,0,0,0,0.6951,0.6946,0.6903,0.6921,0.6916,0.6897,0.6887,0.6884,0.6876,0.6857,0.6854,0.6868,0.6839,0.6835,0.682,0.6817,0.6819,0.6817,0.678,0.678,0.678,0.6789,0,0,0,0,0,0,0.6953,0.6947,0.6942,0.6921,0.6915,0.689,0.6886,0.6883,0.6874,0.6873,0.6853,0.685,0.6839,0.6822,0.6818,0.6815,0.6816,0.678,0.678,0.678,0.6788,0.6789,0.6789,0,0,0,0,0,0.6955,0.6946,0.6942,0.6937,0.6908,0.689,0.6886,0.6874,0.6873,0.6868,0.6857,0.685,0.6818,0.6821,0.6816,0.6812,0.678,0.678,0.678,0.6788,0.6789,0.6789,0,0,0,0,0,0,0.6967,0.6943,0.6938,0.6922,0.6908,0.6888,0.6881,0.6875,0.6861,0.6861,0.6846,0.6842,0.6828,0.6819,0.6822,0.68,0.6799,0.6798,0.6807,0.6807,0.6807,0.681,0.6815,0,0,0,0,0,0.6967,0.6955,0.6935,0.6923,0.6916,0.69,0.6892,0.6883,0.6869,0.6863,0.685,0.6836,0.6823,0.6814,0.6801,0.6787,0.6783,0.6782,0.6782,0.6783,0.6782,0.6774,0.6774,0.6778,0.6778,0.6778,0,0,0.6969,0.6954,0.6947,0.6925,0.6913,0.69,0.6895,0.6882,0.6873,0.6861,0.6846,0.6836,0.682,0.6805,0.6798,0.6797,0.678,0.6782,0.6783,0.6782,0.6774,0.6773,0.6773,0.6778,0.6778,0.6778,0,0,0.6965,0.6953,0.6941,0.693,0.6912,0.6902,0.6899,0.688,0.6873,0.6857,0.6848,0.6837,0.6815,0.6804,0.6795,0.6788,0.6782,0.6784,0.6785,0.6778,0.6778,0.6777,0.6775,0.6774,0.6783,0.6783,0.6783,0,0.6969,0.6949,0.6936,0.6924,0.6914,0.6903,0.6892,0.6882,0.6861,0.6855,0.6854,0.6825,0.6814,0.6797,0.6795,0.6788,0.6785,0.6786,0.6779,0.6778,0.6778,0.6775,0.6774,0.6784,0.6784,0.6784,0.6784,0,0.6956,0.6942,0.6935,0.6915,0.6905,0.6893,0.6879,0.687,0.6863,0.6853,0.6838,0.6823,0.6807,0.6803,0.6796,0.6785,0.6785,0.6781,0.6779,0.6778,0.6775,0.6774,0.6784,0.6784,0.6784,0.6784,0,0,0.6958,0.6931,0.6929,0.692,0.69,0.6889,0.6877,0.6861,0.6854,0.6841,0.6831,0.6812,0.6809,0.6799,0.6791,0.6785,0.678,0.6782,0.6782,0.6782,0.6768,0.6771,0.677,0.6776,0.6776,0.6776,0.677,0,0.6951,0.6929,0.6917,0.69,0.6888,0.6877,0.6867,0.6854,0.6844,0.6833,0.6822,0.6809,0.6806,0.68,0.6794,0.6782,0.6777,0.6783,0.6767,0.6767,0.6771,0.6769,0.6771,0.6766,0.6769,0.6768,0.6768,0,0.6941,0.6927,0.6908,0.689,0.6885,0.6876,0.686,0.6849,0.6835,0.6828,0.6818,0.681,0.6797,0.6797,0.678,0.6784,0.6777,0.677,0.677,0.6768,0.6767,0.6767,0.6764,0.6763,0.6767,0.6767,0.6767,0,0.6944,0.6921,0.6907,0.69,0.6878,0.6872,0.6863,0.6849,0.684,0.6827,0.6821,0.6807,0.6799,0.6789,0.6777,0.6778,0.6761,0.676,0.6756,0.6756,0.6753,0.6753,0.6749,0.6749,0.6749,0.6749,0.6749,0,0.6938,0.6928,0.6909,0.69,0.6888,0.6875,0.6863,0.6853,0.6841,0.683,0.6821,0.6811,0.6797,0.6786,0.6777,0.6764,0.6761,0.6756,0.6753,0.6756,0.6757,0.6752,0.6752,0.6748,0.6748,0.6749,0.6749,0,0.694,0.6927,0.6911,0.6892,0.6887,0.6879,0.6863,0.6855,0.6845,0.6832,0.6828,0.6813,0.68,0.6787,0.677,0.6764,0.6751,0.6748,0.6756,0.6755,0.6752,0.6752,0.6744,0.6742,0.6743,0.6743,0.6743,0,0.6937,0.6929,0.6909,0.6901,0.6892,0.688,0.6871,0.6858,0.6849,0.6832,0.6826,0.6812,0.68,0.6779,0.6767,0.6753,0.675,0.6748,0.6748,0.6752,0.675,0.6751,0.675,0.6748,0.6748,0.6748,0.6748,0,0.6934,0.6928,0.6915,0.69,0.689,0.6877,0.6865,0.6859,0.6844,0.6835,0.6821,0.6812,0.6794,0.678,0.6765,0.6757,0.675,0.6749,0.6747,0.675,0.6755,0.6752,0.6757,0.6749,0.6749,0.6749,0.6749,0.6749,0.6933,0.6925,0.691,0.6896,0.6885,0.6874,0.6865,0.6854,0.6842,0.6826,0.682,0.6806,0.6792,0.6772,0.6763,0.6752,0.6751,0.6748,0.6748,0.6747,0.6748,0.6757,0.6749,0.6749,0.6749,0.6749,0.6749,0,0.6929,0.6919,0.6906,0.6889,0.6878,0.6873,0.6859,0.6851,0.6838,0.6826,0.6814,0.6799,0.6786,0.6772,0.6759,0.6753,0.6749,0.6749,0.675,0.6748,0.675,0.6753,0.6752,0.6752,0.6752,0.6752,0.6752,0.6752,0.6925,0.6912,0.6904,0.6885,0.6875,0.6861,0.6854,0.6843,0.6833,0.6816,0.6805,0.6796,0.6784,0.6769,0.6757,0.6753,0.6749,0.675,0.6745,0.6748,0.6748,0.6747,0.675,0.6749,0.6749,0.6744,0.6744,0.6744]}]]